Regional Weather Roundup
Issued by NWS

Home | Current Version | Previous Version | Graphics & Text | Print | Product List | Glossary On
Versions: 1 2 3 4 5 6 7 8 9 10 11 12 13 14 15 16 17 18 19 20 21 22 23 24 25 26 27 28 29 30 31 32 33 34 35 36 37 38 39 40 41 42 43 44 45 46 47 48 49 50
523
ASUS43 KTOP 192359
RWRKS

WEATHER ROUNDUP FOR KANSAS
NATIONAL WEATHER SERVICE GOODLAND KS
700 PM CDT THU OCT 19 2017

NOTE:  "FAIR" INDICATES FEW OR NO CLOUDS BELOW 12,000 FEET WITH NO
SIGNIFICANT WEATHER AND/OR OBSTRUCTIONS TO VISIBILITY.

KSZ001>006-013>018-027>032-041>047-200100-
NORTHWEST KANSAS

CITY           SKY/WX    TMP DP  RH WIND       PRES   REMARKS
GOODLAND       CLOUDY    71  46  40 S14       29.93S
6HR MIN TEMP:  71; 6HR MAX TEMP:  80;

HAYS           CLOUDY    69  46  43 S12       29.97R
HILL CITY      CLEAR     75  41  29 S13       29.94S
6HR MIN TEMP:  75; 6HR MAX TEMP:  84;

RUSSELL        CLOUDY    70  45  40 S13       29.96S
6HR MIN TEMP:  70; 6HR MAX TEMP:  83; 6HR PCP: TRACE;

$$

KSZ061>065-074>080-084>089-200100-
SOUTHWEST KANSAS

CITY           SKY/WX    TMP DP  RH WIND       PRES   REMARKS
DODGE CITY     CLEAR     72  41  32 SE15      29.98S
6HR MIN TEMP:  72; 6HR MAX TEMP:  81;

ELKHART          N/A     69  48  47 SE17        N/A
GARDEN CITY    CLEAR     72  41  32 S18       29.95S
6HR MIN TEMP:  72; 6HR MAX TEMP:  81;

GREAT BEND     CLEAR     70  48  45 SE13      29.98F
LIBERAL        CLEAR     70  43  37 MISG        N/A
$$

KSZ066>073-081>083-090>101-200100-
SOUTHEAST KANSAS

CITY           SKY/WX    TMP DP  RH WIND       PRES   REMARKS
CHANUTE        PTCLDY    65  53  65 S8        30.08S
6HR MIN TEMP:  65; 6HR MAX TEMP:  79;

COFFEYVILLE    PTCLDY    68  55  63 S5        30.08F
6HR MIN TEMP:  68; 6HR MAX TEMP:  80;

HUTCHINSON     CLOUDY    71  46  40 S12       30.01S
6HR MIN TEMP:  71; 6HR MAX TEMP:  82;

MEDICINE LODGE   N/A     71  45  39 SE9G22    30.01R
NEWTON         CLEAR     69  47  45 S13       30.04S
PARSONS        PTCLDY    68  53  58 S3        30.10S
6HR MIN TEMP:  68; 6HR MAX TEMP:  78; 6HR PCP: TRACE;

WICHITA INTL   MOCLDY    70  49  47 S13       30.03S
6HR MIN TEMP:  70; 6HR MAX TEMP:  80;

WICHITA JABRA  CLEAR     69  49  48 S9        30.04R
6HR MIN TEMP:  69; 6HR MAX TEMP:  80;

WICHITA MCCONL CLEAR     71  47  43 S14       30.04S
WINFIELD       PTCLDY    68  52  56 SE6       30.06S
6HR MIN TEMP:  68; 6HR MAX TEMP:  79;

$$

KSZ007>012-019>026-033>040-048>060-102>105-200100-
NORTHEAST KANSAS

CITY           SKY/WX    TMP DP  RH WIND       PRES   REMARKS
CONCORDIA      CLEAR     73  45  36 S16       29.97S
6HR MIN TEMP:  73; 6HR MAX TEMP:  81;

EMPORIA        CLOUDY    69  52  54 SE12      30.04S
6HR MIN TEMP:  69; 6HR MAX TEMP:  81;

LAWRENCE       CLOUDY    65  53  65 SE7       30.04S
6HR MIN TEMP:  65; 6HR MAX TEMP:  80;

MANHATTAN      CLEAR     74  47  38 S6        30.00S
6HR MIN TEMP:  74; 6HR MAX TEMP:  83;

OLATHE IND     CLOUDY    66  53  63 S7        30.07S
6HR MIN TEMP:  66; 6HR MAX TEMP:  79;

OLATHE EXE     CLOUDY    66  54  65 S8        30.07S
6HR MIN TEMP:  66; 6HR MAX TEMP:  78;

SALINA         CLEAR     67  49  52 S12       29.99S
6HR MIN TEMP:  67; 6HR MAX TEMP:  83;

TOPEKA BILLARD CLOUDY    70  53  54 SE6       30.03S
6HR MIN TEMP:  70; 6HR MAX TEMP:  82;

TOPEKA FORBES  CLOUDY    71  54  54 S9        30.03S
6HR MIN TEMP:  70; 6HR MAX TEMP:  82;

$$




USA.gov is the U.S. government's official web portal to all federal, state and local government web resources and services.